Find Local Weather

World > North America > United States > New York

New Kingston, New York Regional Weather

Lat: 42.22N, Lon: 74.68W
Wx Zone: NYZ057
Feedback

New Kingston, NY Regional Weather

Expires:201905242100;;398558
ASUS41 KBGM 242010
RWRBGM

REGIONAL WEATHER ROUNDUP
NATIONAL WEATHER SERVICE BINGHAMTON NY
400 PM EDT FRI MAY 24 2019

Note: "fair" indicates few or no clouds below 12,000 feet with no
significant weather and/or obstructions to visibility.

* = Station(s) that does not report precipitation, such as rain, 
snow, etc, also no thunder or fog.


NYZ009-015>018-022>025-036-037-044>046-055>057-062-242100
...Central New York...
  
CITY           SKY/WX    TMP DP  RH WIND       PRES   REMARKS
Binghamton     PTSUNNY   62  49  62 NW18G24   30.09R                  
Cortland       CLOUDY    59  50  72 NW7       30.12R                  
Dansville      PTSUNNY   67  52  58 NW13      30.12R                  
Elmira         CLOUDY    68  53  58 NE10G18   30.08R                  
Endicott       CLOUDY    64  52  63 N7        30.08S                  
Ithaca         CLOUDY    61  51  70 NW12G18   30.12R                  
Hamilton       CLOUDY    59  48  67 NW8       30.10R                  
Hornell        SUNNY     68  50  52 N9        30.14S                  
Monticello     CLOUDY    62  50  64 NW16G26   30.06R                  
Norwich        CLOUDY    57  48  72 NW9       30.10R                  
Oneonta        MOSUNNY   54  48  82 NW7       30.09R                  
Penn Yan       PTSUNNY   65  51  60 NW8       30.12R                  
Rome           CLOUDY    62  51  67 W8        30.08R                  
Seneca Falls   MOCLDY    63  48  59 N9G16     30.13R                  
Sidney         CLOUDY    57  48  72 N8        30.09R                  
Skaneateles    CLOUDY    59  50  72 CALM      30.13R                  
Syracuse       CLOUDY    64  49  57 W14       30.11R                  
$$
 

SKY/WX - Weather  TMP - Temperature  DP - Dew Point  RH - Relative Humidity
WIND - Wind Direction/Speed PRES - Barometric Pressure VSB - Visibility
WCI - Wind Chill Index E13G22 Wind - East Wind 13 mph/Gusts of 22 mph